sat.trackr.live / text

‹ back to catalog

USA 157 (MILSTAR-2 2)

NORAD 26715 · 2001-009A

PAYLOAD ACTIVE UNKNOWN

§ Identity

Operator
Country
US
Launch date
2001-02-27
Launch site
AFETR
Launch vehicle
Mass (kg)
RCS (m²)

Purposes: comms

External: N2YO · Heavens-Above · Gunter

§ Orbital elements

Epoch: 2026-09-19T14:08:46.669920Z

Period
1,436.15 min
Inclination
11.6467°
Eccentricity
0.0042747
Mean motion
1.00268153 rev/d
Perigee alt
35,607.4 km
Apogee alt
35,967.9 km
Semi-major
42,165.8 km
B*
0.0000e+0
RAAN
19.1549°
Arg perigee
179.4642°
Mean anomaly
222.1082°
Rev number
3,389

§ Raw data

USA 157 (MILSTAR-2 2)1 26715U 01009A   26262.58942905  .00000110  00000+0  00000+0 0  99912 26715  11.6467  19.1549 0042747 179.4642 222.1082  1.00268153 33890

JSON: /api/v1/satellites/26715 · /tle

For live sub-satellite position, see the globe view (requires WebGL).

§ Visibility from observer

Set your observer location to see the next 7 days of passes ≥ 10°. The values pass through the URL so the page stays shareable.

No JS? Fill the form by hand. The geolocation button needs JavaScript.